Location: Darmstadt
(49.8706°N, 8.6494°E)
Time: 05:40:43
(UTC+01:00)

Okean O Rocket - Pass Details

Date: 31 October 2020
Orbit: 623 x 644 km, 98.2° (Epoch: 03 December)

Event Time Altitude Azimuth Distance (km) Brightness Sun altitude
Rises 17:28:51 0° 158° (SSE) 2,905 5.0 -4.7°
Reaches altitude 10° 17:31:03 10° 156° (SSE) 1,999 4.1 -5.0°
Maximum altitude 17:35:22 71° 73° (ENE) 666 1.6 -5.7°
Drops below altitude 10° 17:39:43 10° 350° (N) 2,008 4.1 -6.4°
Sets 17:41:55 0° 348° (NNW) 2,919 5.0 -6.7°
